星链-5636 (STARLINK-5636 )

导读

STARLINK-5636是美国SpaceX星链(Starlink)星座的成员卫星,于2023年2月2日发射入轨。作为星链低轨互联网星座的组网卫星,它运行在近地轨道,整星重量约297千克,采用平板构型设计,配合猎鹰9号火箭实现批量发射组网。该卫星旨在为全球提供高速低延迟卫星互联网服务,覆盖偏远地区、特殊场景与商业及军事用户,支撑星链星座完成全球化网络布局,是SpaceX构建太空互联网基建的重要组成部分。

基本信息
目录编号:
55454
目录名称:
STARLINK-5636
国际标识:
2023-015F
轨道中心:
EARTH
卫星名称:
星链-5636
卫星全名:
星链-5636 (STARLINK-5636 )
卫星状态:
在轨 (已飞行1317 天)
发射日期:
2023-02-02 UTC
国别 :
美国 (US)
星等 :
--
该卫星已列入 空间交会检测服务 Space Conjunction Data Service (SCDS) ,当前飞行风险评估等级: 无高风险
轨道信息
数据来源 国际轨道数据
星历时间: 2026-09-11T15:53:35+0800
11小时前
查看轨道信息
半长轴: 6861.214km
偏心率: 0.0000949
轨道倾角: 43.005°
近地点辐角 258.937°
升交点赤经 0.283°
平近点角 101.138°
近地点: 482.425km
远地点: 483.729km
周期: 94.267分钟
每日圈数: 15.275708
详细信息
固有亮度:
5
最大亮度:
2.5
卫星平台:
Starlink v1.5
覆盖范围:
全球
运营商:
太空探索技术公司
运营商所在国:
美国
制造商(研发单位):
太空探索技术公司
制造商所在国:
美国
使用方式:
暂无
卫星简介
星链(Starlink)计划是由太空探索技术公司(SpaceX)提出的一个巨型低轨卫星互联网星座项目,计划在2019年至2024年间在太空搭建由约1.2万颗卫星组成的“星链”网络,其中1584颗将部署在地球上空550千米处的近地轨道,并从2020年开始工作。该卫星仍在工作。
2D轨道图
3D轨道图
轨道高度分析图
轨道倾角分析图
轨道综合分析图
查看轨道综合分析图
交会数据列表
事件ID 空间交会对象 最接近时刻(TCA) 交会距离 交会风险概率(CRP) 交会风险指数(CRI) 操作
CDM_260912-105905-545406-685721
2026-09-12T
10:59:12+0000
0.178 km
中距离
4.364353E-4 高风险 0.88
CDM_260912-101205-545406-685721
2026-09-12T
10:12:08+0000
1.128 km
极远距离
3.78953E-6 低风险 0.47
与全量物体交会距离演化趋势
与全量物体交会风险概率演化趋势